THOR ABLESTAR DEB, 405

Orbit data source: Space-Track

THOR ABLESTAR DEB, 405 is space debris in LEO originally from a launch on Thu, 29 Jun 1961 UTC launched from the Air Force Eastern Test Range (AFETR). Debris objects in space refer to the collection of defunct objects orbiting the Earth. Examples of debris include non-operational satellites, rocket bodies, and fragments generated from explosions, collisions, or faulty payload assembly.

Loading next visibility...
THOR ABLESTAR DEB details
Identifier
405, 1961-015EE
Orbit
LEO
Last TLE update18 hours ago
Origin
Flag of USUSAF SSD (US)
ManufacturerUnknown
MissionSpacecraft
Bus & MotorUnknown
MassUnknown
Launch date (UTC)
1961-06-29 (64 years ago)
Launch vehicleUnknown
Launch site
Air Force Eastern Test Range (AFETR)
Object type
Payload
Rocket body
Debris
Shape & HBRUnknown
Radar Cross SectionSmall (<0.1 m²)

Expand to show TLE details & history

TLE from 18 hours ago
0 THOR ABLESTAR DEB
1   405U 61015EE  25043.91500031  .00000237  00000-0  36261-3 0  9998
2   405  66.8908 225.1074 0082758 159.5602 314.7933 13.66482936165759
Epoch: 2025-02-12T21:57Z
Definitive object data (Epoch: 2025-02-12T21:57:36.026Z)
Latitude57.50479°
Longitude-109.28596°
Altitude978.217 km
Speed7.39 km/s
True Right ascension00h 13m 15s
True Declination57° 21' 12"
Sunlit
Object was in daylight at TLE epoch
Visualization TLE readout
Latitude-14.65871°
Longitude-62.86255°
Altitude968.133 km
Speed7.392 km/s
Apparent Right ascension04h 36m 01s
Apparent Declination-28° 15' 48"
Sunlit
Object is in daylight
Visualization observer readout
Local Sidereal Time18:30:29
Azimuth72.507° E
Elevation-63.75°
Doppler factor1
Orbital elements
Apogee altitude1,071.775 km
Perigee altitude949.479 km
Semi-major axis7,388.764 km
Eccentricity0.0082758
Inclination66.8908°
RAAN225.1074°
Arg. of periapsis159.5602°
True anomaly314.11539°
Mean anomaly314.7933°
Eccentric anomaly314.45484°
Mean motion3.41732 °/min
BSTAR0.00036261
Orbital period105.35 mins
Loading maneuver chart data...

THOR ABLESTAR DEB Visibility forecast

Observer location: undefined°, undefined

Span
Click to sort rows by Start time (UTC) header in descending order
Start Az.
Max El. time (UTC)
Max El. Az.
Max El.
End time (UTC)
End Az.
7 mins2025-02-13 20:46:13.226Z3.748° NNE2025-02-13 20:50:13.226Z44.134° NE15.136°2025-02-13 20:53:13.226Z73.691° E
11 mins2025-02-13 22:34:13.226Z335.589° NNW2025-02-13 22:39:13.226Z62.953° ENE44.069°2025-02-13 22:45:13.226Z145.802° SSE
6 mins2025-02-14 00:24:13.226Z284.292° WNW2025-02-14 00:27:13.226Z251.841° W15.663°2025-02-14 00:30:13.226Z221.987° SW
9 mins2025-02-14 12:10:13.226Z152.67° SSE2025-02-14 12:14:13.226Z108.623° ESE24.019°2025-02-14 12:19:13.226Z55.207° ENE
11 mins2025-02-14 13:57:13.226Z229.56° WSW2025-02-14 14:02:13.226Z298.705° NW39.558°2025-02-14 14:08:13.226Z19.897° NNE
|